Regional Weather Roundup
Issued by NWS

Home | Current Version | Previous Version | Text Only | Print | Product List | Glossary Off
Versions: 1 2 3 4 5 6 7 8 9 10 11 12 13 14 15 16 17 18 19 20 21 22 23 24 25 26 27 28 29 30 31 32 33 34 35 36 37 38 39 40 41 42 43 44 45 46 47 48 49 50

000
ASUS43 KDMX 181507
RWRIA

WEATHER ROUNDUP FOR IOWA
NATIONAL WEATHER SERVICE DES MOINES IA
900 AM CST THU DEC 18 2014

NOTE: "FAIR" INDICATES FEW OR NO CLOUDS BELOW 12,000 FEET WITH NO
SIGNIFICANT WEATHER AND/OR OBSTRUCTIONS TO VISIBILITY.

* - THESE STATIONS ARE NOT NWS STATIONS...THUS NOT UNDER NWS
QUALITY CONTROL.  THEY ALSO DO NOT REPORT WEATHER SUCH
AS PRECIPITATION OR FOG.

IAZ001>003-012>014-020>022-031>034-043>046-181600-
   NORTHWEST IOWA

CITY           SKY/WX    TMP DP  RH WIND       PRES   REMARKS
CARROLL *      PTSUNNY   21  19  93 SE7       30.26S WCI  13
CHEROKEE *     CLOUDY    21  19  93 SE6       30.26S WCI  14
DENISON *      CLOUDY    23  21  93 E7        30.23S WCI  15
LE MARS *      CLOUDY    23  21  93 SE8G14    30.25S WCI  14
ORANGE CITY *  CLOUDY    23  18  80 SE5       30.23S WCI  17
SHELDON *      CLOUDY    19  18  93 SE8       30.23S WCI   9
SIOUX CITY     CLOUDY    26  21  81 SE9       30.25R WCI  17
SPENCER        CLOUDY    19  15  84 SE6       30.25S WCI  11
STORM LAKE *   CLOUDY    19  18  93 SE7       30.25S WCI  10
$$

IAZ055>058-069>071-079>083-090>094-181600-
   SOUTHWEST IOWA

CITY           SKY/WX    TMP DP  RH WIND       PRES   REMARKS
ATLANTIC *     LGT SNOW  25  23  93 E5        30.25S WCI  19
AUDUBON *      SUNNY     25  18  74 E5        30.25S WCI  19
CLARINDA *     LGT SNOW  27  25  93 VRB6      30.28R WCI  20
COUNCIL BLFS * MOSUNNY   25  27 100 E8        30.23R FOG     WCI  16
CRESTON *      LGT SNOW  23  23 100 E9        30.25R WCI  13
HARLAN  *      CLOUDY    25  25 100 E8        30.28S WCI  16
LAMONI         LGT SNOW  24  22  91 E6        30.25S VSB 1   WCI  17
RED OAK *      LGT SNOW  27  25  93 E5        30.26R WCI  21
SHENANDOAH *   LGT SNOW  27  27 100 E3        30.27R
$$

IAZ047>049-059>061-072>074-084-181600-
   CENTRAL IOWA

CITY           SKY/WX    TMP DP  RH WIND       PRES   REMARKS
AMES           CLOUDY    21  16  81 E3        30.29R
ANKENY *       CLOUDY    21  18  86 SE5       30.29S WCI  15
CHARITON *     LGT SNOW  23  21  93 CALM      30.27S
DES MOINES     CLOUDY    23  17  78 SE3       30.29S
GRINNELL*      CLOUDY    21  18  86 CALM      30.29R
KNOXVILLE *    MIX PCPN  23  18  80 CALM      30.27S
MARSHALLTOWN   CLOUDY    19  15  84 NE5       30.27F WCI  12
PELLA *        CLOUDY    23  19  86 CALM      30.31S
PERRY *        CLOUDY    23  21  93 E5        30.28S WCI  17
$$

IAZ004>006-015-016-023>025-035-036-181600-
   NORTH CENTRAL IOWA

CITY           SKY/WX    TMP DP  RH WIND       PRES   REMARKS
ALGONA *       MOSUNNY   19  16  86 SE7       30.28S WCI  10
CLARION *      MOSUNNY   18  16  93 E5        30.28S WCI  11
ESTHERVILLE    CLOUDY    17  14  88 SE7       30.26S WCI   8
FORT DODGE *   CLOUDY    19  16  86 SE3       30.28S
MASON CITY     CLOUDY    18  15  88 SW3       30.29F
FOREST CITY *  CLOUDY    18  14  86 CALM      30.28S
IOWA FALLS *     N/A     18  14  86 NE3       30.28F
$$

IAZ007>011-017>019-026>030-037>042-050>054-066-181600-
   NORTHEAST IOWA

CITY           SKY/WX    TMP DP  RH WIND       PRES   REMARKS
CEDAR RAPIDS   PTSUNNY   18  16  92 N6        30.29S WCI  10
CHARLES CITY * CLOUDY    18  14  86 CALM      30.30S
CLINTON *      PTSUNNY   18  14  86 CALM      30.34R
DECORAH *      CLOUDY    16  12  86 CALM      30.28R
DUBUQUE        MOSUNNY   17  14  88 CALM      30.29R
MONTICELLO *   SUNNY     16  16 100 CALM      30.31R
OELWEIN *      SUNNY     16  12  86 CALM      30.29F
WATERLOO       MOSUNNY   14  12  92 CALM      30.30F FOG
$$

IAZ064-065-067-068-078-181600-
   EAST CENTRAL IOWA

CITY           SKY/WX    TMP DP  RH WIND       PRES   REMARKS
DAVENPORT      CLOUDY    19  15  84 CALM      30.31S
IOWA CITY      CLOUDY    21  16  81 NE3       30.32S
MT. PLEASANT * LGT SNOW  23  19  86 CALM      30.32R
MUSCATINE *    CLOUDY    23  19  86 CALM      30.33S
QUAD CITIES    CLOUDY    22  17  81 CALM      30.31S
$$

IAZ062-063-075>077-085>089-095>099-181600-
   SOUTHEAST IOWA

CITY           SKY/WX    TMP DP  RH WIND       PRES   REMARKS
BURLINGTON     MIX PCPN  25  20  81 CALM      30.30R
FAIRFIELD *    LGT SNOW  23  19  86 SW3       30.30S
FORT MADISON * LGT SNOW  25  21  86 CALM      30.31R
KEOKUK *       MIX PCPN  25  21  86 CALM      30.30S
OSKALOOSA *    LGT SNOW  23  19  86 E3        30.30S
CENTERVILLE *  FLURRIES  23  23 100 E3        30.28S
OTTUMWA        LGT SNOW  22  19  89 E3        30.29R VSB 1
WASHINGTON *   SUNNY     23  23 100 CALM      30.30S
$$

ABBREVIATIONS USED IN REMARKS
   TC - TEMPERATURES IN CELSIUS
  WCI - WIND CHILL INDEX
   HX - HEAT INDEX
  VSB - VISIBILITY
$$




USA.gov is the U.S. government's official web portal to all federal, state and local government web resources and services.